Home > Weather > Nashville > Past weeks

Flag for U.S.A. Weather for the Past 2 Weeks in Nashville, Tennessee, U.S.A.

Now
26 °F

Overcast.


Feels Like: 19 °F
Forecast: 24 / 40 °F
Wind: 6 mph from Southeast

Location: Nashville International Airport

Current Time: Feb 11, 2016 at 3:31:29 AM

Latest Report: Feb 11, 2016 at 2:53 AM


Visibility: 10 mi

Pressure: 30.18 "Hg

Humidity: 81%

Dew point: 21 °F

Location of NashvilleLocation

Historic Weather in Nashville — Graph

°F

Nashville Temperature Yesterday

Maximum temperature yesterday: 30 °F (at 2:53 PM)
Minimum temperature yesterday: 20 °F (at 6:53 AM)
Average temperature yesterday: 25 °F

High & Low Weather Summary for the Past Weeks

 TemperatureHumidityPressure
High75 °F (Feb 2, 1:53 PM)96% (Feb 2, 5:53 AM)30.50 "Hg (Feb 2, 5:53 AM)
Low20 °F (Feb 10, 6:53 AM)19% (Feb 7, 2:53 PM)29.65 "Hg (Feb 2, 9:53 PM)
Average43 °F60%30.05 "Hg
* Reported Jan 27 1:53 AM — Feb 11 1:53 AM, Nashville, Weather by CustomWeather, © 2016

Note: Actual official high and low records may vary slightly from our data, if they occured in-between our weather recording intervals... More about our weather records

Advertising

Nashville Weather History for the Previous 24 Hours

 ConditionsComfort  
Time TempWeatherWind HumidityBarometerVisibility
1:53 AM
Thu, Feb 11
26 °FMostly cloudy.5 mph81%30.18 "Hg10 mi
1:01 AM27 °FLow clouds.5 mph80%30.17 "Hg10 mi
11:53 PM
Wed, Feb 10
26 °FOvercast.3 mph77%30.20 "Hg10 mi
10:53 PM26 °FOvercast.No wind77%30.22 "Hg9 mi
9:53 PM26 °FLight snow. Overcast.No wind74%30.23 "Hg8 mi
8:53 PM26 °FLight snow. Overcast.3 mph74%30.23 "Hg8 mi
7:53 PM26 °FLight snow. Mostly cloudy.3 mph77%30.24 "Hg8 mi
6:53 PM25 °FLight snow. Overcast.6 mph81%30.22 "Hg1 mi
5:53 PM25 °FLight snow. Mostly cloudy.6 mph81%30.21 "Hg1 mi
4:53 PM29 °FLight snow. Overcast.8 mph49%30.17 "Hg5 mi
3:53 PM30 °FOvercast.9 mph40%30.16 "Hg10 mi
2:53 PM30 °FOvercast.9 mph40%30.18 "Hg10 mi
1:53 PM29 °FMostly cloudy.7 mph45%30.18 "Hg10 mi
12:53 PM28 °FBroken clouds.10 mph45%30.18 "Hg10 mi
11:53 AM26 °FBroken clouds.12 mph50%30.22 "Hg10 mi
10:53 AM24 °FBroken clouds.6 mph52%30.24 "Hg10 mi
9:53 AM23 °FScattered clouds.13 mph55%30.23 "Hg10 mi
8:53 AM22 °FScattered clouds.10 mph55%30.22 "Hg10 mi
7:53 AM20 °FPassing clouds.10 mph60%30.21 "Hg10 mi
6:53 AM20 °FScattered clouds.9 mph62%30.18 "Hg9 mi
5:53 AM21 °FLight snow. More clouds than sun.8 mph74%30.17 "Hg5 mi
4:53 AM21 °FLight snow. Mostly cloudy.10 mph78%30.14 "Hg2 mi
3:53 AM23 °FOvercast.5 mph68%30.12 "Hg10 mi
Weather by CustomWeather, © 2016

See weather overviewHow to use our weather pages